Regional Weather Roundup
Issued by NWS

Home | Current Version | Previous Version | Text Only | Print | Product List | Glossary On
Versions: 1 2 3 4 5 6 7 8 9 10 11 12 13 14 15 16 17 18 19 20 21 22 23 24 25 26 27 28 29 30 31 32 33 34 35 36 37 38 39 40 41 42 43 44 45 46 47 48 49 50
000
ASUS45 KREV 300910
RWRNV
NEVADA REGIONAL WEATHER ROUNDUP
NATIONAL WEATHER SERVICE RENO NV
200 AM PDT SAT APR 30 2016

NOTE: "FAIR" INDICATES FEW OR NO CLOUDS BELOW 12,000 FEET WITH NO
SIGNIFICANT WEATHER AND/OR OBSTRUCTIONS TO VISIBILITY.

NVZ001-003-004-301000-
WESTERN NEVADA

CITY           SKY/WX    TMP DP  RH WIND       PRES   REMARKS
RENO           PTCLDY    44  31  60 N17       30.03S
CARSON CITY    MOCLDY    41  32  70 NE5       30.02R
MINDEN         CLOUDY    39  36  87 N10       30.03S
PYRAMID LAKE     N/A     46 N/A N/A CALM        N/A
FALLON         MOCLDY    43  32  65 N8        29.98S
LOVELOCK       CLOUDY    45  31  58 E3        29.99R
HAWTHORNE      CLOUDY    45  37  76 NW15      29.98S
$$

NVZ002-CAZ072-073-301000-
NORTHERN AND CENTRAL SIERRA

CITY           SKY/WX    TMP DP  RH WIND       PRES   REMARKS
S. LAKE TAHOE  CLOUDY    33  31  92 CALM      30.01S
TRUCKEE        CLOUDY    34  30  86 N7        30.03F
SQUAW VLY 8000   N/A     27  27 100 NE17        N/A
SUSANVILLE     PTCLDY    45  32  61 N6        30.08
BLUE CANYON    CLEAR     39  27  62 NE15G30   29.95S
MAMMOTH LAKES  FLURRIES  35  30  82 W13       29.96S
BRIDGEPORT     LGT SNOW  32  28  85 W3        29.96F FOG
$$

NVZ030-031-036-301000-
NORTHERN NEVADA

CITY           SKY/WX    TMP DP  RH WIND       PRES   REMARKS
ELKO           CLOUDY    41  38  89 W3        29.93S
WINNEMUCCA     CLOUDY    42  37  82 N13       29.99S
WENDOVER       CLOUDY    45  39  81 N5        29.89S
$$

NVZ035-037-301000-
CENTRAL NEVADA

CITY           SKY/WX    TMP DP  RH WIND       PRES   REMARKS
ELY            CLOUDY    35  33  92 CALM      29.87F
EUREKA           N/A     38  35  89 N5        29.90S
$$

NVZ013-014-301000-
SOUTH CENTRAL NEVADA

CITY           SKY/WX    TMP DP  RH WIND       PRES   REMARKS
TONOPAH        CLOUDY    43  37  79 N8        29.88F
$$

NVZ017-020-022-301000-
SOUTHERN NEVADA

CITY           SKY/WX    TMP DP  RH WIND       PRES   REMARKS
LAS VEGAS      LGT RAIN  62  44  51 N24G32    29.69R
N. LAS VEGAS   LGT RAIN  57  48  72 NW23G29   29.73R
NELLIS AFB     LGT RAIN  61  46  59 W18G25    29.73R
HENDERSON      CLOUDY    61  43  51 NE13G18   29.74R
MERCURY        RAIN      48  44  86 NE20G29   29.79S
$$



USA.gov is the U.S. government's official web portal to all federal, state and local government web resources and services.